Regional Weather Roundup
Issued by NWS

Home | Current Version | Previous Version | Graphics & Text | Print | Product List | Glossary On
Versions: 1 2 3 4 5 6 7 8 9 10 11 12 13 14 15 16 17 18 19 20 21 22 23 24 25 26 27 28 29 30 31 32 33 34 35 36 37 38 39 40 41 42 43 44 45 46 47 48 49 50
872
ASUS44 KMEG 161810
RWRTN
TENNESSEE HOURLY STATE WEATHER ROUNDUP
NATIONAL WEATHER SERVICE MEMPHIS TN
1200 PM CST TUE JAN 16 2018

TNZ002-004-019-021-049-052-054-088>092-161900-
WEST TENNESSEE

CITY           SKY/WX    TMP DP  RH WIND       PRES   REMARKS
MEMPHIS INTL   FAIR      15   3  59 NW14      30.67F WCI   0
NWS MEMPHIS      N/A     14 N/A N/A MISG        N/A
JACKSON        FAIR      13   5  70 NW9       30.65F WCI   1
DYERSBURG      FAIR      14   0  53 W9        30.69F WCI   2
SOMERVILLE     SUNNY     12  -2  52 NW12      30.65F WCI  -2
COVINGTON      SUNNY      9   0  66 NW13      30.69F WCI  -7
UNION CITY     SUNNY      9   0  66 N9        30.67F WCI  -5
BOLIVAR        SUNNY     14   3  62 VRB7G14   30.63F WCI   4
PARIS          SUNNY     10  -2  56 N8        30.62F WCI  -1
HUNTINGDON     SUNNY     12   1  62 NW5G12    30.62F WCI   4
LEXINGTON      SUNNY     16   5  62 NW10      30.61F WCI   3
SELMER         PTSUNNY   16   5  62 VRB6G13   30.60F WCI   7
SAVANNAH       PTSUNNY   16   9  73 NW10      30.60F WCI   3
$$

TNZ008-025-027-028-033-062-065-066-161900-
NORTH MIDDLE TENNESSEE

CITY           SKY/WX    TMP DP  RH WIND       PRES   REMARKS
NASHVILLE      SNOW      14   8  77 NW7       30.58F VSB 1/2 WCI   4
PORTLAND       CLOUDY    10   1  67 NW6G12    30.56F WCI   1
CLARKSVILLE    FAIR      10  -1  61 NW8       30.61F WCI  -2
SMYRNA         LGT SNOW  14   9  80 N9        30.58F WCI   2
COOKEVILLE     MOSUNNY   18  12  79 NW8       30.48F WCI   7
GALLATIN       HAZE      12   7  79 NW8       30.61F VSB 3/4 WCI   1
CROSSVILLE     LGT SNOW  18  12  77 NW9       30.38F WCI   7
$$

TNZ061-075-076-078-094-096-097-161900-
SOUTH MIDDLE TENNESSEE

CITY           SKY/WX    TMP DP  RH WIND       PRES   REMARKS
FAYETTEVILLE   PTSUNNY   19  14  79 NW9       30.48F WCI   9
TULLAHOMA      PTSUNNY   16  12  86 N10       30.48F WCI   3
WINCHESTER     CLOUDY    18  12  79 NW7       30.49F WCI   8
MCMINNVILLE    CLOUDY    16  10  79 N8        30.49F WCI   5
COLUMBIA       MOSUNNY   16  12  86 N9        30.55F FOG     WCI   4
SHELBYVILLE    SUNNY     16  12  86 N12       30.52F HAZE    WCI   3
$$

TNZ017-018-042-046-047-161900-
NORTHEAST TENNESSEE

CITY           SKY/WX    TMP DP  RH WIND       PRES   REMARKS
TRI CITIES     CLOUDY    39  27  62 CALM      30.32F
ELIZABETHTON   CLOUDY    41  27  56 W7        30.30F
$$

TNZ012-013-036-069-073-074-161900-
CENTRAL EAST TENNESSEE

CITY           SKY/WX    TMP DP  RH WIND       PRES   REMARKS
KNOXVILLE      CLOUDY    35  28  75 W13       30.37F WCI  26
OAK RIDGE      LGT SNOW  30  24  78 W5        30.39F WCI  25
DOWNTOWN KNOXV PTSUNNY   37  28  70 VRB7G14   30.37F WCI  32
GATLINBURG     SUNNY     41  27  56 VRB6      30.34F
MORRISTOWN     PTSUNNY   39  28  65 W10       30.32F WCI  32
JACKSBORO      PTSUNNY   25  18  74 VRB6G13   30.43F HAZE    WCI  18
$$

TNZ083-085-099-161900-
SOUTHEAST TENNESSEE

CITY           SKY/WX    TMP DP  RH WIND       PRES   REMARKS
CHATTANOOGA    LGT SNOW  35  25  66 W10       30.41F FOG     WCI  27
DAYTON         CLOUDY    30  25  80 W7        30.42F WCI  23
$$

SKY/WX REPORTED AS FAIR MEANS FEW OR NO CLOUDS BELOW
12 THOUSAND FEET.





USA.gov is the U.S. government's official web portal to all federal, state and local government web resources and services.